Weather in Peganovo

Russia / Tyumen Oblast     55°51′35″N   68°41′39″E
temp.,
°C
wind,
m/s
gust,
m/s
humid.,
%
clouds,
%
prec.,
mm/h
press.,
hPa
HPBL,
m
23 october, sat
sat2323:00+5ssw71587100 0.0 1006481
02:00+6ssw81794100 0.1 1003705
05:00+7sw91681100 0.4 1003723
08:00+7wsw9167846 0.0 1003649
11:00+9wsw9157563 0.0 1005731
14:00+12wsw9146440 0.0 10061158
17:00+11wsw81464100 0.0 1008971
20:00+11w915635 0.0 10091256
24 october, sun
sun2423:00+8wsw816805 0.1 1011759
02:00+8wsw7148096 0.0 1012564
05:00+6wsw613820 0.0 1014474
08:00+6wsw6138532 0.0 1015426
11:00+9wsw61166100 0.0 1016718
14:00+11sw61067100 0.0 1015882
17:00+9s51288100 1.3 1013713
20:00+11sw91672100 0.9 10091121
25 october, mon
mon2523:00+10wsw101657100 0.9 1008892
02:00+10wsw101671100 0.0 10081159
05:00+6w8127477 0.0 1012924
08:00+6w61071100 0.0 1013722
11:00+7w576271 0.0 1015782
14:00+8wsw4654100 0.0 1015941
17:00+7ssw3461100 0.0 101479
20:00+7sse3664100 0.0 1013190
26 october, tue
tue2623:00+6sse2467100 0.1 1011123
02:00+6sw3890100 0.3 1008469
05:00+3nnw5795100 1.6 1008447
08:00+3wnw5996100 1.3 1009666
11:00+2nw8117283 1.6 1012840
14:00+2nw810485 0.0 10141330
17:000nw610565 0.0 1017863
20:00−1nw510660 0.0 1020573
27 october, wed
wed2723:00−2wnw48720 0.0 1022346
02:00−2w36775 0.0 1024195
05:00−3w347613 0.0 1025117
08:00−2wsw2474100 0.0 1026190
11:000wsw345738 0.0 1027538
14:00+2sw44475 0.0 1026910
17:00−1ssw34595 0.0 102646
20:00−2s47635 0.0 1026131